Location: Vancouver
(49.2500°N, 123.1330°W)
Time: 23:36:09
(UTC-07:00)

YAOGAN 6 - Pass Details

Date: 25 February 2018
Orbit: 466 x 508 km, 97.1° (Epoch: 20 June)

Event Time Altitude Azimuth Distance (km) Brightness Sun altitude
Exits shadow 19:12:16 26° 79° (ENE) 1,007 3.6 -14.3°
Maximum altitude 19:12:38 26° 68° (ENE) 993 3.6 -14.3°
Drops below altitude 10° 19:15:40 10° 10° (N) 1,674 5.2 -14.8°
Sets 19:17:57 0° 358° (N) 2,552 6.3 -15.2°
